Location: *
(37.5724°S, 58.0067°E)
Time: 19:58:49
(UTC+00:00)

CZ-2D R/B - Visible Passes

Search period start: 26 January 2021 00:00
Search period end: 05 February 2021 00:00
Orbit: 520 x 538 km, 97.4° (Epoch: 26 January)

Date Brightness Start Highest point End Pass type
(mag) Time Alt. Az. Time Alt. Az. Time Alt. Az.
29 Jan 7.0 16:29:17 10° SW 16:30:35 11° WSW 16:31:53 10° W visible
30 Jan 6.6 16:17:45 10° SSW 16:20:03 15° WSW 16:22:19 10° WNW visible
31 Jan 6.4 16:06:36 10° SSW 16:09:30 20° WSW 16:12:21 10° WNW visible
01 Feb 6.0 15:55:37 10° SSW 15:58:55 26° WSW 16:02:11 10° NW visible
02 Feb 5.4 15:44:44 10° S 15:48:20 34° WSW 15:51:53 10° NW visible
